Погода в Андеге

Россия / Ненецкий автономный округ     67°53′25″N   53°12′55″E
темп.,
°C
ветер,
м/с
пор.,
м/с
влажн.,
%
обл.,
%
осадки,
мм/ч
давл.,
гПа
погр.,
м
14 апреля, ср
ср1400:00−3вюв3597100 0.4 1016111
03:00−3вюв4897100 0.9 1015279
06:00−1юв5898100 2.1 1010242
09:00+3юз816100100 4.1 1007412
12:00+2зюз815100100 1.2 1007534
15:00+1зюз71490100 1.3 1006614
18:00+1зюз81490100 0.0 1004764
21:00−1з9158591 0.2 1004677
15 апреля, чт
чт1500:00−1з111577100 0.0 1003982
03:00−2з101690100 0.1 10041089
06:00−5зсз12188786 0.1 1005698
09:00−6ссз81185100 0.1 1012792
12:00−6с7878100 0.1 1018928
15:00−6с56745 0.1 1022633
18:00−8сз11844 0.0 102520
21:00−9ююз34885 0.0 102545
16 апреля, пт
пт1600:00−8ююз51190100 0.0 1023257
03:00−6ююз71393100 0.1 1020347
06:00−3юз51197100 1.1 1016478
09:00−2зсз589165 2.1 1015553
12:00−1сз8118880 0.1 1017946
15:00−3с9128897 0.1 10211034
18:00−7с588746 0.0 1026268
21:00−10ссз2294100 0.0 102825
17 апреля, сб
сб1700:00−10ююз3595100 0.0 102697
03:00−8ююз61192100 0.0 1023392
06:00−7ююз5996100 1.4 1019401
09:00−3сз7127660 2.6 10181201
12:00−3сз6108796 0.3 1020956
15:00−2сз8128575 0.8 1020731
18:00−5ссз46925 0.0 102376
21:00−9ссв5109458 0.0 1027194
18 апреля, вс
вс1800:00−11ссв47955 0.0 103098
03:00−13ссв33955 0.0 103336
06:00−12с22955 0.0 103540
09:00−8всв118717 0.0 1036144
12:00−7ююз118221 0.0 1037281
15:00−6ю22855 0.0 1038176
18:00−9ююв339072 0.0 103841
21:00−10ююв3689100 0.0 103782